Weather History for KLUF - February, 2012

Change the Weather History Date:

Sunday, February 19, 2012

  Actual Average Record
Temperature  
Mean Temperature 55 °F -  
Max Temperature 67 °F 74 °F 89 °F (1981)
Min Temperature 43 °F 41 °F 25 °F (1952)
Degree Days  
Heating Degree Days 10    
Growing Degree Days 5 (Base 50)    
Moisture  
Dew Point 32 °F    
Average Humidity 43    
Maximum Humidity 65    
Minimum Humidity 25    
Precipitation  
Precipitation 0.00 in - - ()
Sea Level Pressure  
Sea Level Pressure 29.90 in    
Wind  
Wind Speed 5 mph (WNW)    
Max Wind Speed 14 mph    
Max Gust Speed -    
Visibility 10 miles    
Events      
Averages and records for this station are not official NWS values.
T = Trace of Precipitation, MM = Missing Value Source: NWS Daily Summary

Daily Weather History Graph

Daily Weather History Graph

Search for Another Location

Airport or City:

Trip Planner

Search our weather history database for the weather conditions in past years. The results will help you decide how hot, cold, wet, or windy it might be!

Date:

Astronomy

Feb. 19, 2012 Rise Set
Actual Time 7:09 AM MST 6:17 PM MST
Civil Twilight 6:44 AM MST 6:42 PM MST
Nautical Twilight 6:15 AM MST 7:11 PM MST
Astronomical Twilight 5:46 AM MST 7:40 PM MST
Moon 5:28 AM MST (2/19) 4:26 PM MST (2/19)
Length of Visible Light 11h 58m
Length of Day
11h 07m
Waning Crescent, 5% of the Moon is Illuminated
Feb 19
Waning Crescent
Feb 21
New
Feb 29
First Quarter
Mar 8
Full
Mar 14
Last Quarter

Hourly Weather History & Observations

Time (MST) Temp. Windchill Dew Point Humidity Pressure Visibility Wind Dir Wind Speed Gust Speed Precip Events Conditions
12:55 AM 48.6 °F - 31.1 °F 51% 29.96 in 10.0 mi NE 4.6 mph - N/A   Clear
1:55 AM 47.5 °F - 33.8 °F 59% 29.95 in 10.0 mi NNW 6.9 mph - N/A   Clear
2:55 AM 46.9 °F - 31.1 °F 54% 29.93 in 10.0 mi NE 3.5 mph - N/A   Clear
3:55 AM 43.9 °F 42.3 °F 32.7 °F 65% 29.90 in 10.0 mi NNW 3.5 mph - N/A   Clear
4:55 AM 44.4 °F 42.9 °F 29.3 °F 55% 29.90 in 10.0 mi NNE 3.5 mph - N/A   Clear
5:55 AM 43.3 °F 39.9 °F 29.5 °F 58% 29.90 in 10.0 mi NNE 5.8 mph - N/A   Clear
6:55 AM 43.2 °F 41.5 °F 30.2 °F 60% 29.90 in 10.0 mi North 3.5 mph - N/A   Clear
7:55 AM 45.3 °F 42.3 °F 30.0 °F 55% 29.91 in 10.0 mi NNW 5.8 mph - N/A   Clear
8:55 AM 48.6 °F - 32.0 °F 53% 29.93 in 10.0 mi Calm Calm - N/A   Partly Cloudy
9:55 AM 52.9 °F - 32.0 °F 45% 29.94 in 10.0 mi East 3.5 mph - N/A   Scattered Clouds
10:55 AM 55.8 °F - 33.1 °F 42% 29.94 in 10.0 mi Calm Calm - N/A   Partly Cloudy
11:55 AM 61.3 °F - 34.3 °F 36% 29.91 in 10.0 mi SSW 6.9 mph - N/A   Clear
12:55 PM 63.5 °F - 33.1 °F 32% 29.88 in 10.0 mi SSW 8.1 mph - N/A   Clear
1:55 PM 64.9 °F - 32.9 °F 30% 29.85 in 10.0 mi SSW 9.2 mph - N/A   Clear
2:55 PM 66.0 °F - 33.6 °F 30% 29.83 in 10.0 mi South 10.4 mph - N/A   Clear
3:55 PM 66.7 °F - 31.8 °F 27% 29.84 in 10.0 mi SW 10.4 mph - N/A   Clear
4:55 PM 67.3 °F - 30.4 °F 25% 29.84 in 10.0 mi SW 6.9 mph - N/A   Clear
5:55 PM 65.7 °F - 30.2 °F 27% 29.84 in 10.0 mi WSW 13.8 mph - N/A   Clear
6:55 PM 62.2 °F - 30.7 °F 31% 29.87 in 10.0 mi West 5.8 mph - N/A   Clear
7:55 PM 59.9 °F - 32.0 °F 35% 29.90 in 10.0 mi NW 6.9 mph - N/A   Clear
8:55 PM 57.9 °F - 32.7 °F 39% 29.92 in 10.0 mi WNW 6.9 mph - N/A   Clear
9:55 PM 57.0 °F - 31.8 °F 38% 29.94 in 10.0 mi West 5.8 mph - N/A   Clear
10:55 PM 51.1 °F - 34.9 °F 54% 29.96 in 10.0 mi NNW 4.6 mph - N/A   Clear
11:55 PM 53.8 °F - 30.2 °F 41% 29.97 in 10.0 mi Variable 3.5 mph - N/A   Clear